2023/01/30 00:00:00,85.2,-2.5
2023/01/30 00:10:00,85.1,-2.9
2023/01/30 00:20:00,85.1,-3.4
2023/01/30 00:30:00,85.0,-3.5
2023/01/30 00:40:00,85.0,-3.5
2023/01/30 00:50:00,85.0,-3.6
2023/01/30 01:00:00,84.9,-3.7
2023/01/30 01:10:00,84.8,-3.8
2023/01/30 01:20:00,84.8,-3.4
2023/01/30 01:30:00,84.6,-3.4
2023/01/30 01:40:00,84.6,-2.8
2023/01/30 01:50:00,84.8,-2.4
2023/01/30 02:00:00,84.7,-2.6
2023/01/30 02:10:00,84.7,-2.6
2023/01/30 02:20:00,84.6,-2.3
2023/01/30 02:30:00,84.5,-2.4
2023/01/30 02:40:00,84.7,-2.6
2023/01/30 02:50:00,84.6,-2.0
2023/01/30 03:00:00,84.6,-2.3
2023/01/30 03:10:00,84.4,-2.4
2023/01/30 03:20:00,84.4,-2.1
2023/01/30 03:30:00,84.4,-1.9
2023/01/30 03:40:00,84.4,-2.0
2023/01/30 03:50:00,84.9,-2.0
2023/01/30 04:00:00,85.1,-2.0
2023/01/30 04:10:00,85.2,-2.1
2023/01/30 04:20:00,85.2,-2.1
2023/01/30 04:30:00,85.6,-1.9
2023/01/30 04:40:00,87.1,-1.4
2023/01/30 04:50:00,88.0,-1.7
2023/01/30 05:00:00,88.1,-1.6
2023/01/30 05:10:00,88.1,-1.5
2023/01/30 05:20:00,88.4,-1.6
2023/01/30 05:30:00,88.4,-1.7
2023/01/30 05:40:00,88.6,-1.3
2023/01/30 05:50:00,88.8,-1.4
2023/01/30 06:00:00,88.8,-1.4
2023/01/30 06:10:00,88.8,-1.4
2023/01/30 06:20:00,89.0,-1.4
2023/01/30 06:30:00,88.8,-1.3
2023/01/30 06:40:00,88.6,-1.5
2023/01/30 06:50:00,88.6,-1.5
2023/01/30 07:00:00,88.5,-1.8
2023/01/30 07:10:00,88.5,-1.6
2023/01/30 07:20:00,88.5,-1.5
2023/01/30 07:30:00,88.3,-1.2
2023/01/30 07:40:00,88.2,-1.2
2023/01/30 07:50:00,88.2,-1.3
2023/01/30 08:00:00,88.1,-1.4
2023/01/30 08:10:00,88.5,-1.4
2023/01/30 08:20:00,89.4,-1.5
2023/01/30 08:30:00,90.2,-1.7
2023/01/30 08:40:00,90.9,-1.2
2023/01/30 08:50:00,91.4,-1.2
2023/01/30 09:00:00,91.3,-1.3
2023/01/30 09:10:00,91.6,-1.2
2023/01/30 09:20:00,91.9,-1.1
2023/01/30 09:30:00,91.9,-1.1
2023/01/30 09:40:00,92.1,-0.5
2023/01/30 09:50:00,92.1,-0.7
2023/01/30 10:00:00,92.8,-1.0
2023/01/30 10:10:00,93.3,-0.9
2023/01/30 10:20:00,94.3,-1.1
2023/01/30 10:30:00,94.6,-0.2
2023/01/30 10:40:00,94.6,-0.1
2023/01/30 10:50:00,94.4, 0.1
2023/01/30 11:00:00,94.3,-0.5
2023/01/30 11:10:00,94.4,-0.5
2023/01/30 11:20:00,95.0,-0.3
2023/01/30 11:30:00,94.9,-0.5
2023/01/30 11:40:00,95.8,-0.6
2023/01/30 11:50:00,96.4,-0.5
2023/01/30 12:00:00,96.2, 0.2
2023/01/30 12:10:00,96.2, 0.2
2023/01/30 12:20:00,96.4,-0.2
2023/01/30 12:30:00,97.2,-0.2
2023/01/30 12:40:00,97.1, 0.4
2023/01/30 12:50:00,97.2, 0.3
2023/01/30 13:00:00,97.5, 0.5
2023/01/30 13:10:00,97.4, 1.1
2023/01/30 13:20:00,97.3, 0.7
2023/01/30 13:30:00,97.1, 1.0
2023/01/30 13:40:00,97.2, 1.4
2023/01/30 13:50:00,97.3, 0.2
2023/01/30 14:00:00,97.7, 1.0
2023/01/30 14:10:00,97.7, 1.9
2023/01/30 14:20:00,97.5, 0.9
2023/01/30 14:30:00,97.7, 0.6
2023/01/30 14:40:00,97.5, 1.1
2023/01/30 14:50:00,97.2, 2.2
2023/01/30 15:00:00,97.1, 1.5
2023/01/30 15:10:00,97.1, 1.1
2023/01/30 15:20:00,96.9, 0.6
2023/01/30 15:30:00,96.6, 0.6
2023/01/30 15:40:00,96.6, 0.5
2023/01/30 15:50:00,96.7, 0.7
2023/01/30 16:00:00,96.4, 0.7
2023/01/30 16:10:00,96.2, 0.3
2023/01/30 16:20:00,96.1,-0.1
2023/01/30 16:30:00,96.7,-0.4
2023/01/30 16:40:00,96.8,-0.9
2023/01/30 16:50:00,96.6,-0.7
2023/01/30 17:00:00,96.4,-0.7
2023/01/30 17:10:00,96.3,-0.8
2023/01/30 17:20:00,96.0,-0.8
2023/01/30 17:30:00,95.9,-1.2
2023/01/30 17:40:00,96.1,-0.7
2023/01/30 17:50:00,96.3,-0.7
2023/01/30 18:00:00,96.8,-1.5
2023/01/30 18:10:00,97.0,-1.1
2023/01/30 18:20:00,97.2,-1.7
2023/01/30 18:30:00,98.1,-1.5
2023/01/30 18:40:00,98.7,-1.6
2023/01/30 18:50:00,99.1,-1.5
2023/01/30 19:00:00,98.9,-1.4
2023/01/30 19:10:00,98.9,-1.4
2023/01/30 19:20:00,98.7,-1.6
2023/01/30 19:30:00,98.6,-1.5
2023/01/30 19:40:00,98.6,-1.6
2023/01/30 19:50:00,98.5,-1.4
2023/01/30 20:00:00,98.4,-1.7
2023/01/30 20:10:00,98.2,-1.6
2023/01/30 20:20:00,98.1,-1.9
2023/01/30 20:30:00,97.9,-1.9
2023/01/30 20:40:00,97.8,-1.5
2023/01/30 20:50:00,97.7,-1.3
2023/01/30 21:00:00,97.7,-1.5
2023/01/30 21:10:00,98.1,-1.6
2023/01/30 21:20:00,98.5,-1.7
2023/01/30 21:30:00,98.6,-1.4
2023/01/30 21:40:00,98.7,-1.6
2023/01/30 21:50:00,98.6,-1.7
2023/01/30 22:00:00,98.6,-1.6
2023/01/30 22:10:00,98.4,-1.6
2023/01/30 22:20:00,98.2,-1.5
2023/01/30 22:30:00,98.1,-1.6
2023/01/30 22:40:00,98.1,-1.7
2023/01/30 22:50:00,98.1,-1.8
2023/01/30 23:00:00,98.1,-1.3
2023/01/30 23:10:00,98.1,-1.5
2023/01/30 23:20:00,97.9,-1.7
2023/01/30 23:30:00,97.7,-1.6
2023/01/30 23:40:00,98.1,-1.5
2023/01/30 23:50:00,98.1,-1.7
